User: anonymous   Login
Location: Columbia
(38.9520°N, 92.3340°W)
Time: 23:37:45
(UTC-05:00)
Language:

Cosmos 1633 - Orbit

View from above orbital plane
View from above orbital plane
View from above satellite
View from above satellite

Ground track
Ground track

The orbit data is extracted from the following two-line orbital elements,

1 15592U 85020A   15126.12243984  .00006439  00000-0  26728-3 0  9995
2 15592 082.5412 011.5071 0016457 028.8793 131.0068 15.23532574646362
Epoch (UTC): 06 May 2015 02:56:18
Eccentricity: 0.0016457
inclination: 82.5412°
perigee height: 484 km
apogee height: 506 km
right ascension of ascending node: 11.5071°
argument of perigee: 28.8793°
revolutions per day: 15.23532574
mean anomaly at epoch: 131.0068°
orbit number at epoch: 64636

The dashed part of the orbit path shows where the satellite is in the earth's shadow,  

DLR